TimeMDT,TemperatureF,Dew PointF,Humidity,Sea Level PressureIn,VisibilityMPH,Wind Direction,Wind SpeedMPH,Gust SpeedMPH,PrecipitationIn,Events,Conditions,WindDirDegrees,DateUTC
12:11 AM,37.4,32.0,81,30.27,10.0,South,13.8,-,N/A,,Clear,190,2012-10-12 06:11:00
12:31 AM,37.4,32.0,81,30.26,10.0,South,10.4,-,N/A,,Mostly Cloudy,180,2012-10-12 06:31:00
12:51 AM,37.4,32.0,81,30.26,10.0,South,12.7,-,N/A,,Mostly Cloudy,180,2012-10-12 06:51:00
1:11 AM,37.4,32.0,81,30.25,10.0,South,12.7,-,N/A,,Clear,190,2012-10-12 07:11:00
1:31 AM,39.2,32.0,75,30.25,10.0,SSW,6.9,-,N/A,,Clear,210,2012-10-12 07:31:00
1:51 AM,37.4,32.0,81,30.24,10.0,South,16.1,-,N/A,,Clear,190,2012-10-12 07:51:00
2:11 AM,37.4,32.0,81,30.24,10.0,SSW,11.5,-,N/A,,Clear,200,2012-10-12 08:11:00
2:31 AM,37.4,32.0,81,30.24,10.0,SSW,13.8,18.4,N/A,,Clear,200,2012-10-12 08:31:00
2:51 AM,37.4,32.0,81,30.23,10.0,South,16.1,-,N/A,,Clear,190,2012-10-12 08:51:00
3:11 AM,37.4,32.0,81,30.21,10.0,South,19.6,-,N/A,,Clear,180,2012-10-12 09:11:00
3:31 AM,37.4,32.0,81,30.19,10.0,South,17.3,-,N/A,,Clear,190,2012-10-12 09:31:00
3:51 AM,35.6,32.0,87,30.18,10.0,South,20.7,24.2,N/A,,Clear,190,2012-10-12 09:51:00
4:11 AM,35.6,32.0,87,30.19,10.0,SSW,15.0,-,N/A,,Clear,200,2012-10-12 10:11:00
4:28 AM,35.6,32.0,87,30.20,10.0,SSW,13.8,20.7,N/A,,Clear,200,2012-10-12 10:28:00
4:51 AM,33.8,32.0,93,30.19,10.0,South,13.8,-,N/A,,Clear,190,2012-10-12 10:51:00
4:57 AM,33.8,32.0,93,30.19,10.0,South,15.0,-,N/A,,Clear,180,2012-10-12 10:57:00
5:27 AM,33.8,32.0,93,30.17,10.0,SSW,16.1,21.9,N/A,,Clear,200,2012-10-12 11:27:00
5:50 AM,33.8,32.0,93,30.18,10.0,SSW,15.0,20.7,N/A,,Clear,200,2012-10-12 11:50:00
6:11 AM,33.8,32.0,93,30.17,10.0,SSW,15.0,18.4,N/A,,Clear,200,2012-10-12 12:11:00
6:30 AM,33.8,32.0,93,30.16,10.0,South,15.0,-,N/A,,Clear,190,2012-10-12 12:30:00
6:51 AM,33.8,32.0,93,30.16,10.0,SSW,15.0,18.4,N/A,,Clear,200,2012-10-12 12:51:00
7:11 AM,33.8,32.0,93,30.15,10.0,South,19.6,-,N/A,,Clear,190,2012-10-12 13:11:00
7:31 AM,33.8,32.0,93,30.17,10.0,SSW,21.9,-,N/A,,Clear,200,2012-10-12 13:31:00
8:00 AM,35.6,32.0,87,30.18,10.0,SW,12.7,19.6,N/A,,Clear,220,2012-10-12 14:00:00
8:23 AM,41.0,32.0,70,30.17,10.0,SSW,11.5,16.1,N/A,,Clear,210,2012-10-12 14:23:00
8:37 AM,42.8,32.0,66,30.16,10.0,SW,10.4,-,N/A,,Clear,220,2012-10-12 14:37:00
8:55 AM,44.6,33.8,66,30.16,10.0,SW,12.7,-,N/A,,Clear,230,2012-10-12 14:55:00
9:29 AM,53.6,35.6,51,30.15,10.0,SW,12.7,-,N/A,,Clear,220,2012-10-12 15:29:00
10:07 AM,59.0,35.6,42,30.12,10.0,SSW,11.5,-,N/A,,Clear,210,2012-10-12 16:07:00
10:27 AM,59.0,35.6,42,30.12,10.0,South,16.1,20.7,N/A,,Clear,190,2012-10-12 16:27:00
10:50 AM,57.2,35.6,44,30.13,10.0,SSW,15.0,20.7,N/A,,Clear,200,2012-10-12 16:50:00
11:31 AM,50.0,33.8,54,30.15,10.0,South,19.6,25.3,N/A,,Mostly Cloudy,180,2012-10-12 17:31:00
11:51 AM,46.4,35.6,66,30.14,10.0,South,26.5,32.2,N/A,Rain,Light Rain,180,2012-10-12 17:51:00
12:18 PM,48.2,35.6,62,30.15,10.0,SSW,25.3,31.1,N/A,,Overcast,200,2012-10-12 18:18:00
12:40 PM,46.4,33.8,62,30.15,10.0,SW,20.7,27.6,N/A,,Overcast,220,2012-10-12 18:40:00
1:31 PM,50.0,44.6,82,30.07,10.0,WSW,6.9,-,0.01,,Mostly Cloudy,240,2012-10-12 19:31:00
1:50 PM,57.2,44.6,63,30.04,10.0,SSW,8.1,-,0.01,,Scattered Clouds,210,2012-10-12 19:50:00
1:56 PM,59.0,44.6,59,30.04,10.0,South,12.7,16.1,N/A,,Clear,190,2012-10-12 19:56:00
2:26 PM,62.6,41.0,45,30.02,10.0,SSW,19.6,25.3,N/A,,Clear,200,2012-10-12 20:26:00
2:46 PM,64.4,37.4,37,30.02,10.0,South,23.0,31.1,N/A,,Mostly Cloudy,190,2012-10-12 20:46:00
3:31 PM,59.0,37.4,45,30.02,10.0,South,18.4,21.9,N/A,,Scattered Clouds,190,2012-10-12 21:31:00
4:00 PM,55.4,39.2,54,30.01,10.0,South,21.9,28.8,N/A,,Scattered Clouds,190,2012-10-12 22:00:00
5:13 PM,51.8,37.4,58,30.01,10.0,South,10.4,21.9,N/A,,Mostly Cloudy,180,2012-10-12 23:13:00
5:34 PM,50.0,41.0,71,30.01,10.0,West,3.5,-,N/A,,Scattered Clouds,260,2012-10-12 23:34:00
5:52 PM,51.8,41.0,67,29.99,10.0,South,3.5,-,N/A,,Clear,190,2012-10-12 23:52:00
6:14 PM,50.0,41.0,71,30.00,10.0,South,6.9,-,N/A,,Clear,170,2012-10-13 00:14:00
6:54 PM,44.6,41.0,87,30.00,10.0,SSE,12.7,-,N/A,,Clear,160,2012-10-13 00:54:00
7:12 PM,44.6,41.0,87,29.99,10.0,South,9.2,-,N/A,,Clear,170,2012-10-13 01:12:00
7:32 PM,44.6,41.0,87,30.00,10.0,South,10.4,-,N/A,,Clear,190,2012-10-13 01:32:00
7:53 PM,44.6,39.2,81,30.01,10.0,SW,11.5,-,N/A,,Clear,220,2012-10-13 01:53:00
8:13 PM,44.6,41.0,87,29.99,10.0,South,11.5,16.1,N/A,,Clear,180,2012-10-13 02:13:00
9:11 PM,44.6,39.2,81,30.00,10.0,WSW,13.8,-,N/A,,Clear,250,2012-10-13 03:11:00
9:33 PM,42.8,37.4,81,30.02,10.0,SW,13.8,-,N/A,,Clear,230,2012-10-13 03:33:00
10:10 PM,41.0,37.4,87,30.00,10.0,WSW,13.8,-,N/A,,Clear,250,2012-10-13 04:10:00
10:14 PM,42.8,37.4,81,30.01,10.0,WSW,12.7,-,N/A,,Clear,250,2012-10-13 04:14:00
10:35 PM,44.6,35.6,71,30.02,10.0,WSW,11.5,-,N/A,Thunderstorm,Clear,250,2012-10-13 04:35:00
11:07 PM,44.6,33.8,66,30.00,10.0,WSW,13.8,23.0,N/A,,Clear,240,2012-10-13 05:07:00